{"data":{"norad_id":66054,"intl_designator":"2025-234B","name":"2025-234B","alt_names":[],"object_type":"PAYLOAD","status":"ACTIVE","operator":null,"country":"PAKI","launch_date":"2025-10-19","launch_site_code":"JSC","launch_vehicle":null,"mission":null,"orbit_class":"UNKNOWN","rcs_meters":null,"size_class":null,"mass_kg":null,"dimensions":null,"purposes":[],"wikipedia_slug":null,"has_3d_model":false,"image_url":null,"decayed_at":null,"tle_current":{"epoch":"2026-09-20T10:18:51.647616Z","epoch_age_seconds":146482,"freshness":"FRESH","line1":"1 66054U 25234B   26263.42976444  .00003279  00000+0  14715-3 0  9997","line2":"2 66054  97.4674 331.9755 0012300 117.8684 242.3799 15.21838518 51121","mean_motion":15.21838518,"eccentricity":0.00123,"inclination_deg":97.4674,"raan_deg":331.9755,"arg_perigee_deg":117.8684,"mean_anomaly_deg":242.3799,"bstar":0.00014715,"rev_number":5112,"period_min":94.622391467161,"perigee_km":491.83471522184,"apogee_km":508.7556584014,"semimajor_km":6878.4321868116,"source":"CELESTRAK","updated_at":"2026-09-21T09:00:15.736434Z"}}}